LDZALDSP

Guest
Details From LDZA - Zagreb
To LDSP - SPLIT
Flight Number -
Tags generated
Created
Modified
Stats Distance 133 nm / 246 km
Max Altitude 11,700 ft / 3,566 m
Waypoints 3
Social Downloads 1
Likes 0
Share VATSIM

Download

Looking for another format? Having issues loading an existing format? Contact us
Advertisement - Login to hide

Notes

Basic altitude profile: - Ascent Rate: 2500ft/min - Ascent Speed: 250kts - Cruise Altitude: 35000ft - Cruise Speed: 420kts - Descent Rate: 1500ft/min - Descent Speed: 250kts

Route

LDZA SONIK LDSP

ID Type Via Altitude Latitude Longitude Leg Dist Tot Dist Heading (true) Name
O LDZA APT - 0 ft / 0 m 45.74189˚ 16.06720˚ - 0 nm - Zagreb
SONIK FIX - 11,700 ft / 3,566 m 44.44833˚ 16.14333˚ 77 nm 77 nm 178° / 178° -
O LDSP APT - 0 ft / 0 m 43.53903˚ 16.29811˚ 55 nm 132 nm 173° / 173° SPLIT

Altitude Profile

Advertisement - Login to hide

LDZA

Details ICAO LDZA (ZAG)
Name Zagreb
Region Croatia
Timezone Europe/Zagreb (UTC+1.0)
Stats Elevation 353 ft / 108 m (AMSL)
Location 45.741890° 16.067200°
Runways 1
Magnetic Variation 3.958° E

METAR

LDZA 110200Z 20008KT 160V230 9999 OVC046 04/01 Q1001 NOSIG

Decode

TAF

TAF LDZA 102325Z 1100/1200 23005KT CAVOK TX15/1113Z TN06/1100Z TEMPO 1100/1105 23010KT BECMG 1104/1106 23015KT PROB40 TEMPO 1104/1118 23015G30KT

Decode

Departure Runways

ID Width Length Bearing (true) Bearing (mag) Surface Threshold Offset Overrun Length
05 148 ft / 45 m 10,659 ft / 3,249 m 46.69° 42.73° Asphalt 0 ft / 0 m 195 ft / 59 m
23 148 ft / 45 m 10,659 ft / 3,249 m 226.71° 222.75° Asphalt 0 ft / 0 m 195 ft / 59 m

LDSP

Details ICAO LDSP (SPU)
Name SPLIT
Region Croatia
Timezone Europe/Zagreb (UTC+1.0)
Stats Elevation 79 ft / 24 m (AMSL)
Location 43.539026° 16.298112°
Runways 1
Magnetic Variation 3.836° E

METAR

LDSP 110200Z AUTO 14012KT 9999 BKN031/// BKN039/// OVC045/// 12/05 Q1012

Decode

TAF

TAF LDSP 102325Z 1100/1200 11016KT 9999 BKN040 TX14/1112Z TN12/1100Z TEMPO 1100/1200 11020G30KT PROB30 TEMPO 1100/1106 RA

Decode

Destination Runways

ID Width Length Bearing (true) Bearing (mag) Surface Threshold Offset Overrun Length
05 148 ft / 45 m 8,357 ft / 2,547 m 52.48° 48.64° Asphalt 0 ft / 0 m 76 ft / 23 m
23 148 ft / 45 m 8,357 ft / 2,547 m 232.50° 228.66° Asphalt 525 ft / 160 m 820 ft / 250 m

Approach Navaids

Runway Type Ident Frequency Range Bearing (true) Bearing (mag) Slope Elevation
05 Localiser IST 110.50 MHz 25 nm / 46 km 52.57° 48.73° - 69 ft / 21 m (AMSL)
05 Glidescope IST 110.50 MHz 25 nm / 46 km 52.57° 48.73° 3.00° 52 ft / 16 m (AMSL)

Popular Alternatives